Wind_Speed
25 26 26 27 28 29 31 32 32 33 34 35 35 34 35 35 36 37 38 38 40 41 41 42 43 44 44 44 44 44 44 45 45 46 47 47 47 47 48 48 47 48 48 47
27 27 27 28 28 29 31 32 33 34 34 35 36 35 35 36 37 37 38 39 39 40 41 42 43 44 45 45 45 46 46 46 46 46 47 47 48 47 47 48 48 49 49 49
28 27 27 28 28 29 30 32 33 34 35 36 37 36 35 36 37 38 39 40 40 40 41 41 42 42 44 45 46 46 47 48 47 47 48 48 48 48 48 48 49 49 50 50
28 27 28 28 29 30 31 31 32 33 35 35 36 38 35 36 36 36 38 39 40 41 41 42 42 42 43 44 45 46 47 48 49 49 49 49 49 49 49 49 50 50 51 51
28 28 28 29 29 31 31 31 32 33 34 36 35 38 36 35 36 36 37 38 38 39 40 42 43 43 43 44 44 46 47 48 49 49 49 49 49 49 50 50 50 51 51 51
28 28 29 29 29 31 32 32 33 33 34 36 34 37 37 35 35 36 36 36 37 38 38 40 41 42 43 44 45 45 46 48 49 49 49 49 49 49 50 51 51 51 51 52
28 28 29 29 30 30 31 32 33 34 35 36 35 36 36 35 35 36 37 36 37 37 38 39 40 41 42 43 44 46 46 47 48 49 49 49 50 50 51 51 52 51 52 52
30 30 30 30 30 31 31 32 33 35 36 36 35 37 36 35 36 37 37 37 38 38 39 40 41 41 41 42 44 45 46 46 47 48 49 50 51 51 51 52 52 52 52 52
31 32 31 30 30 31 31 31 32 35 36 37 37 36 36 35 36 37 37 38 38 39 39 40 41 41 41 42 43 45 46 46 47 48 49 50 51 51 51 51 52 52 52 53
31 33 31 31 31 31 31 32 33 34 36 38 39 37 37 36 36 37 36 37 38 38 39 39 40 41 42 42 43 44 45 45 46 47 48 50 50 50 50 50 50 51 52 53
33 34 33 32 31 31 32 33 34 35 37 39 40 38 37 37 37 37 37 38 38 38 39 39 40 41 42 43 43 43 44 45 46 47 48 48 49 50 50 51 51 51 52 52
34 35 34 33 33 33 33 33 34 36 38 39 40 40 37 37 37 38 38 38 39 39 40 40 40 40 41 42 42 42 43 44 45 46 47 47 49 50 50 50 50 51 52 52
34 35 36 35 34 34 34 34 35 36 38 40 41 40 37 38 38 39 39 39 39 40 40 41 41 41 41 42 43 43 44 44 44 46 47 48 48 48 48 49 49 50 51 52
35 35 36 36 36 36 35 35 36 38 40 40 40 39 37 38 39 39 39 40 40 41 41 41 41 41 41 42 43 44 44 45 45 46 47 48 48 48 49 49 49 50 51 52
36 36 36 36 36 37 37 37 37 38 39 41 40 39 38 40 41 41 41 40 40 41 41 40 40 40 40 41 42 43 44 44 45 45 46 47 48 48 49 49 49 50 51 52
35 36 36 36 36 37 37 36 37 37 38 40 40 39 39 41 41 42 41 41 41 42 41 41 41 41 40 41 42 42 43 43 44 45 46 47 48 48 49 49 50 51 51 52
36 37 38 37 37 38 38 35 36 37 37 38 39 38 39 39 40 40 40 40 41 41 40 40 40 40 40 41 41 42 42 43 44 45 45 46 47 48 49 50 50 51 51 52
35 36 38 38 37 38 36 35 36 37 37 38 39 38 39 40 39 39 39 39 39 40 40 40 41 41 41 41 41 41 42 43 44 45 46 46 47 48 49 50 51 51 51 51
34 36 37 38 38 39 36 36 37 38 37 37 39 39 39 40 40 39 39 39 39 40 40 40 40 40 40 41 41 40 41 42 43 45 45 46 47 48 49 50 51 51 51 51
34 35 36 37 39 39 37 37 38 39 38 38 39 39 39 39 39 38 39 39 39 39 40 39 39 39 39 40 41 41 41 42 43 44 45 47 48 49 49 49 49 50 50 50
35 35 36 36 38 38 38 38 38 39 39 38 39 39 39 39 39 38 38 38 39 39 39 39 39 39 39 39 40 41 42 43 43 44 45 46 47 48 49 49 49 49 49 50
36 36 36 37 38 38 38 38 38 39 39 39 39 39 39 39 39 38 38 38 39 39 39 39 39 39 40 40 41 41 42 43 43 44 45 45 45 46 48 48 48 49 49 49
36 37 37 38 37 38 38 38 39 39 39 38 39 39 38 38 38 38 38 38 38 39 39 39 39 39 40 40 40 41 41 41 42 43 44 45 45 45 46 47 47 48 49 49
36 37 37 38 37 38 38 39 38 38 39 39 39 38 38 38 38 38 38 38 38 38 38 39 39 39 39 40 40 40 41 41 42 43 43 44 44 44 45 46 46 47 48 48
37 37 38 38 39 39 39 39 40 40 40 39 39 38 37 37 37 38 38 38 37 37 38 38 39 39 39 40 40 40 41 41 42 42 43 43 43 44 44 45 45 45 46 47
37 38 39 39 40 40 40 40 40 40 39 39 39 39 38 38 38 38 38 38 38 38 38 38 38 39 39 39 40 40 40 41 41 41 41 42 42 43 43 43 44 45 45 46
Wind_Direction
281 278 277 277 276 275 274 273 272 271 271 271 269 267 266 266 265 263 262 261 260 259 260 259 258 258 257 256 255 255 255 255 255 256 256 256 256 256 256 256 257 258 258 258
281 280 280 279 278 276 275 274 274 274 273 273 271 269 267 266 265 265 264 262 262 261 260 260 260 259 258 256 256 255 256 256 256 257 258 257 257 257 257 257 257 258 258 258
285 284 282 280 280 279 277 277 276 275 274 274 274 272 270 269 268 267 266 264 263 262 261 260 259 260 259 258 257 256 256 256 257 258 258 258 257 257 257 257 258 259 259 259
287 286 284 283 282 281 281 281 279 277 276 275 275 275 273 272 270 270 269 267 266 265 263 262 261 261 261 260 258 257 257 258 259 259 259 258 258 257 258 258 259 260 260 260
289 287 286 285 284 282 281 281 279 278 277 276 276 276 275 274 274 272 271 270 268 267 265 264 262 262 263 262 260 259 258 258 259 259 258 258 258 258 258 259 260 261 261 261
290 289 287 286 284 283 281 280 278 277 278 277 278 278 277 276 277 275 273 271 270 268 267 265 264 263 264 264 263 261 260 260 259 258 258 258 258 260 260 260 261 262 262 261
290 290 289 287 284 283 282 281 280 280 279 279 280 279 280 279 278 277 276 273 272 270 268 267 266 265 265 265 264 263 263 262 260 258 258 258 259 261 262 262 262 262 262 262
293 292 291 289 287 285 283 282 282 282 282 282 282 282 282 282 280 279 278 276 274 273 271 269 268 267 266 265 265 265 264 263 261 259 259 259 260 261 262 262 262 262 262 262
295 294 292 290 288 286 285 283 283 283 283 283 283 284 282 283 283 281 280 278 276 274 273 272 270 268 266 266 266 266 265 263 261 260 260 260 261 262 262 262 262 262 263 263
295 294 293 291 289 286 285 285 283 282 284 285 285 285 285 285 283 282 280 278 276 275 274 272 271 270 268 267 267 266 264 263 262 261 261 261 261 262 263 263 263 263 263 263
291 291 292 291 289 288 287 285 284 283 284 286 287 286 287 287 286 284 281 279 278 278 276 275 274 272 270 268 267 267 265 264 263 261 261 262 262 262 264 264 264 264 264 264
289 289 290 290 289 288 287 287 286 284 285 285 285 286 286 286 285 284 283 281 280 279 278 276 275 273 271 269 268 267 266 264 263 262 261 262 263 263 264 264 265 265 265 264
289 287 288 289 289 289 288 288 287 286 286 285 285 287 286 286 285 283 282 281 280 279 278 276 275 274 272 270 268 268 267 265 264 262 262 262 263 263 264 265 265 265 265 265
287 286 287 288 289 289 288 287 287 287 286 285 285 286 284 284 283 282 282 281 280 279 278 277 276 275 273 271 269 268 268 266 265 263 263 263 263 263 265 265 265 266 266 266
287 287 287 287 287 288 288 288 288 287 287 286 286 285 285 282 281 281 281 282 281 280 279 278 277 275 273 272 271 270 269 267 266 264 264 263 264 265 266 266 266 267 267 267
289 289 288 287 287 287 288 289 289 289 289 288 288 286 285 284 283 283 282 282 282 281 279 278 277 276 275 274 273 271 270 269 268 266 265 265 265 266 267 267 268 268 268 268
290 290 290 288 288 288 288 291 291 290 290 290 289 289 287 285 284 283 283 283 283 281 280 279 278 277 277 276 275 273 272 271 270 269 268 267 268 268 268 268 268 269 269 269
291 291 291 291 290 289 294 293 292 291 291 291 290 289 288 287 285 284 283 283 283 282 280 280 280 279 278 277 276 275 274 273 272 271 269 270 270 270 270 270 269 269 269 269
292 292 292 292 292 292 294 295 295 293 292 292 291 289 288 288 286 285 284 285 284 283 281 280 281 281 279 277 276 276 275 274 273 272 271 272 272 271 271 271 271 269 269 269
292 291 291 292 292 294 298 297 296 294 293 293 292 291 290 289 288 287 286 286 285 284 283 281 281 280 279 278 277 276 275 276 275 274 273 273 273 272 271 272 271 270 270 269
292 291 291 292 292 295 298 298 297 295 296 295 294 292 291 290 289 288 287 286 285 284 284 282 281 280 279 278 278 276 276 276 276 276 275 275 275 274 272 272 272 271 270 269
292 292 291 292 293 296 298 297 296 295 295 294 294 293 293 292 290 288 287 286 285 284 283 282 281 280 279 279 279 278 278 277 277 277 277 277 277 276 274 273 272 271 270 269
291 291 291 292 293 294 295 295 295 294 294 294 293 293 293 292 291 289 289 288 287 286 284 282 281 281 281 280 280 279 278 278 278 277 277 277 277 276 275 273 273 272 271 270
293 291 291 291 293 293 293 294 295 295 294 294 293 293 293 292 291 290 290 289 288 287 286 284 283 283 281 281 281 280 279 279 280 279 278 278 277 276 276 275 274 273 272 272
293 291 291 291 292 291 292 293 294 294 294 293 293 293 292 292 291 291 291 290 290 289 288 286 285 284 283 282 281 281 280 280 280 280 279 279 278 277 276 275 274 274 273 273
291 291 292 292 292 292 292 292 292 293 293 293 292 292 291 291 292 292 291 290 290 290 289 287 286 285 285 284 283 282 282 282 281 281 280 280 279 278 277 276 275 275 275 275
Height
5686 5686 5684 5684 5683 5682 5681 5681 5681 5681 5680 5680 5680 5681 5683 5683 5683 5684 5685 5686 5687 5689 5690 5691 5692 5694 5695 5697 5699 5701 5702 5704 5706 5707 5709 5711 5712 5714 5716 5718 5719 5721 5723 5724
5679 5678 5678 5676 5675 5674 5673 5672 5672 5673 5672 5671 5670 5672 5673 5673 5673 5674 5674 5676 5677 5678 5680 5681 5681 5683 5684 5686 5688 5690 5691 5693 5694 5696 5697 5699 5701 5702 5704 5706 5707 5709 5710 5712
5671 5672 5670 5668 5667 5666 5665 5664 5664 5663 5663 5662 5661 5662 5664 5664 5663 5664 5664 5665 5666 5667 5668 5669 5670 5671 5673 5675 5676 5678 5679 5681 5682 5684 5685 5686 5688 5690 5692 5694 5695 5697 5698 5700
5664 5664 5662 5661 5660 5658 5658 5657 5655 5654 5653 5653 5653 5651 5655 5654 5654 5654 5655 5655 5655 5656 5657 5658 5659 5660 5661 5663 5665 5666 5667 5668 5670 5671 5672 5674 5676 5678 5680 5682 5683 5684 5685 5687
5657 5656 5655 5654 5653 5651 5650 5649 5647 5645 5643 5643 5643 5641 5644 5645 5644 5645 5645 5645 5645 5645 5646 5647 5648 5649 5650 5651 5652 5654 5655 5656 5657 5658 5659 5661 5663 5665 5667 5669 5671 5672 5673 5674
5650 5648 5647 5646 5644 5643 5641 5640 5639 5637 5635 5634 5635 5632 5633 5635 5635 5635 5635 5635 5634 5635 5635 5635 5636 5637 5638 5639 5640 5641 5642 5643 5644 5645 5647 5649 5651 5652 5654 5656 5657 5658 5659 5661
5642 5641 5639 5638 5636 5635 5633 5632 5630 5627 5625 5625 5626 5623 5625 5626 5625 5625 5625 5625 5624 5624 5624 5624 5624 5625 5626 5626 5627 5628 5629 5629 5630 5632 5634 5636 5638 5639 5641 5642 5644 5645 5646 5647
5633 5633 5631 5629 5628 5627 5625 5623 5622 5619 5617 5617 5617 5615 5617 5617 5616 5615 5615 5614 5614 5613 5613 5613 5613 5613 5614 5614 5615 5615 5616 5617 5618 5619 5621 5623 5624 5625 5627 5629 5630 5631 5632 5633
5625 5624 5623 5621 5619 5618 5616 5615 5614 5611 5608 5607 5606 5607 5608 5607 5606 5605 5605 5604 5603 5602 5602 5602 5602 5602 5602 5602 5602 5603 5603 5604 5605 5606 5608 5609 5610 5611 5613 5614 5616 5616 5618 5619
5617 5616 5615 5613 5611 5610 5609 5607 5605 5602 5599 5597 5597 5598 5599 5598 5597 5596 5594 5593 5592 5591 5590 5590 5590 5590 5590 5590 5590 5590 5591 5591 5592 5593 5594 5595 5597 5598 5599 5600 5601 5602 5603 5604
5610 5608 5607 5605 5603 5602 5600 5599 5595 5593 5591 5589 5586 5590 5589 5588 5586 5585 5584 5582 5581 5580 5579 5579 5578 5578 5578 5578 5578 5578 5578 5579 5579 5580 5581 5582 5583 5584 5585 5586 5587 5588 5589 5590
5601 5599 5597 5596 5595 5593 5591 5589 5587 5585 5583 5580 5577 5580 5579 5577 5575 5574 5573 5571 5570 5569 5568 5567 5567 5566 5565 5565 5565 5565 5565 5566 5566 5567 5568 5569 5570 5570 5571 5572 5573 5573 5574 5575
5592 5590 5588 5587 5587 5585 5582 5581 5578 5575 5572 5570 5568 5571 5569 5566 5564 5563 5561 5560 5559 5558 5556 5555 5555 5554 5553 5553 5552 5552 5552 5553 5553 5554 5554 5555 5556 5556 5557 5558 5558 5559 5560 5560
5583 5581 5580 5579 5576 5574 5573 5572 5569 5565 5562 5560 5559 5559 5559 5555 5553 5551 5550 5548 5547 5546 5545 5543 5542 5542 5541 5540 5540 5540 5539 5540 5540 5540 5541 5542 5542 5543 5543 5544 5544 5545 5545 5546
5574 5572 5571 5569 5567 5565 5563 5561 5559 5555 5553 5550 5549 5548 5548 5544 5542 5540 5538 5537 5536 5534 5533 5531 5530 5529 5529 5528 5527 5526 5527 5526 5526 5527 5527 5527 5528 5529 5529 5530 5530 5530 5530 5531
5564 5563 5561 5560 5558 5555 5553 5552 5549 5546 5544 5540 5538 5538 5537 5533 5531 5529 5527 5526 5524 5522 5521 5519 5518 5517 5516 5515 5514 5514 5514 5513 5513 5513 5513 5514 5514 5515 5515 5515 5515 5515 5515 5515
5556 5554 5551 5550 5548 5544 5543 5544 5540 5537 5534 5531 5528 5528 5525 5522 5520 5518 5516 5514 5512 5510 5509 5508 5506 5505 5504 5503 5502 5501 5501 5500 5500 5500 5500 5500 5500 5500 5500 5500 5500 5500 5500 5499
5547 5544 5541 5539 5538 5534 5538 5534 5530 5527 5525 5522 5518 5516 5514 5511 5509 5507 5505 5503 5501 5499 5497 5496 5495 5493 5492 5491 5490 5489 5488 5488 5487 5487 5486 5487 5486 5486 5486 5485 5485 5485 5484 5484
5538 5535 5532 5529 5526 5524 5527 5524 5519 5516 5515 5512 5508 5505 5503 5500 5498 5496 5494 5492 5490 5487 5486 5484 5483 5481 5480 5479 5477 5476 5475 5475 5474 5473 5473 5472 5472 5471 5471 5470 5470 5469 5469 5469
5530 5527 5524 5520 5516 5514 5517 5513 5509 5506 5504 5502 5498 5495 5492 5489 5487 5487 5483 5481 5478 5476 5474 5472 5471 5469 5468 5467 5465 5464 5463 5462 5461 5460 5459 5459 5457 5457 5456 5455 5455 5454 5454 5454
5521 5518 5515 5511 5507 5506 5506 5502 5499 5496 5495 5491 5487 5484 5481 5479 5477 5475 5472 5469 5467 5465 5462 5461 5459 5457 5456 5454 5453 5452 5450 5449 5448 5447 5446 5445 5443 5442 5441 5441 5440 5439 5439 5438
5511 5508 5506 5502 5499 5500 5496 5491 5489 5486 5482 5479 5476 5473 5471 5468 5465 5463 5460 5458 5455 5453 5451 5449 5447 5445 5444 5442 5441 5440 5438 5437 5435 5434 5432 5431 5429 5428 5427 5425 5425 5424 5423 5423
5502 5500 5496 5494 5493 5489 5484 5481 5478 5474 5471 5468 5465 5463 5460 5457 5455 5452 5450 5447 5444 5442 5440 5437 5435 5434 5432 5430 5429 5427 5425 5424 5422 5421 5419 5417 5415 5414 5412 5411 5410 5409 5409 5408
5493 5490 5486 5484 5482 5478 5474 5471 5468 5464 5461 5458 5455 5452 5449 5447 5444 5442 5439 5436 5434 5431 5428 5426 5424 5422 5420 5418 5416 5415 5413 5411 5409 5407 5405 5403 5401 5400 5398 5397 5396 5395 5394 5394
5483 5480 5476 5473 5471 5468 5465 5461 5457 5454 5451 5448 5445 5442 5439 5436 5433 5431 5428 5425 5422 5420 5417 5415 5412 5410 5408 5406 5404 5402 5400 5399 5397 5394 5392 5390 5388 5386 5385 5383 5382 5381 5381 5380
5473 5469 5466 5464 5460 5457 5454 5450 5447 5444 5441 5437 5434 5431 5428 5425 5422 5419 5417 5414 5411 5409 5406 5403 5401 5398 5396 5394 5392 5390 5388 5386 5384 5381 5379 5377 5375 5373 5371 5370 5369 5367 5367 5365